Regional Weather Roundup
Issued by NWS Wakefield, VA

Home | Current Version | Previous Version | Graphics & Text | Print | Product List | Glossary On
Versions: 1 2 3 4 5 6 7 8 9 10 11 12 13 14 15 16 17 18 19 20 21 22 23 24 25 26 27 28 29 30 31 32 33 34 35 36 37 38 39 40 41 42 43 44 45 46 47 48 49 50
000
ASUS41 KAKQ 301515
RWRAKQ

REGIONAL WEATHER ROUNDUP
NATIONAL WEATHER SERVICE WAKEFIELD VA
1100 AM EDT TUE JUN 30 2015

Note: "fair" indicates few or no clouds below 12,000 feet with no
significant weather and/or obstructions to visibility. * = Denotes
station may not report precipitation (e.g., rain,snow,etc.),
thunder or fog.

VAZ042-051-052>054-056-301600-
NORTHERN VIRGINIA

CITY           SKY/WX    TMP DP  RH WIND       PRES   REMARKS
WASH NATIONAL  PTSUNNY   78  73  84 SW6       29.91F
DULLES         PTSUNNY   76  67  73 SW7       29.90F
FORT BELVOIR   PTSUNNY   77  72  85 SE6       29.90F
QUANTICO       MOSUNNY   78  69  73 S6        29.91S
FREDERICKSBRG* MOSUNNY   83  68  59 S9        29.90S
STAFFORD*      MOSUNNY   79  67  66 S5        29.94F
WARRENTON      MOSUNNY   80  72  75 SW5       29.90S
CULPEPER*      MOSUNNY   78  68  71 SW5       29.91F
MANASSAS*      MOSUNNY   79  70  73 SW9         N/A
LEESBURG*      CLOUDY    79  72  78 SW6       29.91F
WINCHESTER     SUNNY     81  64  57 S8        29.90S
FRONT ROYAL*   FAIR      79  66  65 S6        29.89S
LURAY*         FAIR      82  66  57 S6        29.91S
$$

VAZ048-049-060>072-079>083-301600-
CENTRAL AND SOUTH CENTRAL VIRGINIA

CITY           SKY/WX    TMP DP  RH WIND       PRES   REMARKS
RICHMOND       PTSUNNY   85  67  54 S12       29.92S
CHESTERFIELD*  NOT AVBL
PETERSBURG*    SUNNY     85  73  67 S6        29.94R
HANOVER        MOSUNNY   84  66  54 S8        29.93F
TAPPAHANNOCK*  SUNNY     85  63  48 S7        29.92F
QUINTON*       FAIR      82  69  63 S5        29.92S
CHARLOTTSVILLE PTSUNNY   74  66  76 S6        29.91F
GORDONSVILLE*  FAIR      79  66  65 SW7       29.92S
ORANGE*        SUNNY     81  68  65 S8        29.93S
LOUISA*        SUNNY     81  68  65 SW5       29.91S
BUMPASS*       CLOUDY    81  68  65 S3        29.91F
FARMVILLE*     MOSUNNY   82  66  58 SW8       29.92S
CREWE*         FAIR      81  66  60 S5        29.93S
FORT PICKETT*  FAIR      81  69  66 S9        29.94S
CHASE CITY*    FAIR      83  69  64 W3        29.95S
CLARKSVILLE*   FAIR      82  68  61 SW5       29.94S
SOUTH HILL*    SUNNY     82  68  62 SW5       30.01R
LAWRENCEVILLE* NOT AVBL
EMPORIA*       SUNNY     82  68  61 S8        29.95S
$$

VAZ088>098-301600-
SOUTHEAST VIRGINIA

CITY           SKY/WX    TMP DP  RH WIND       PRES   REMARKS
NORFOLK        SUNNY     85  67  54 S9        29.94F
VIRGINIA BEACH MOSUNNY   88  68  51 S9        29.94F
NORFOLK NAVAL  MOSUNNY   86  65  49 S9        29.96S
WEST POINT*    SUNNY     86  66  51 SE12      29.93F
SALUDA*        FAIR      83  73  71 S13       29.92F
NEWPORT NEWS   SUNNY     84  69  60 S13       29.94F
LANGLEY AFB    SUNNY     84  68  58 SW9       29.93F
FORT EUSTIS    SUNNY     83  72  69 SE10      29.92F
WILLIAMSBURG*  SUNNY     88  73  62 SE8       29.94F HX  96
HR EXEC AP*    FAIR      86  70  58 S9        29.96F
FRANKLIN*      SUNNY     84  69  60 SE7       29.95S
WAKEFIELD      SUNNY     85  68  56 VRB3      29.93F
$$

VAZ020-022-025-037-045-301600-
WEST CENTRAL AND SOUTHWEST VIRGINIA

CITY           SKY/WX    TMP DP  RH WIND       PRES   REMARKS
STAUNTON*      MOSUNNY   80  64  57 S8        29.95F
WAYNESBORO*    FAIR      74  64  69 SW5       29.95F
HOT SPRINGS VA CLOUDY    68  61  77 W10G16    30.04S
LYNCHBURG      MOSUNNY   78  65  63 VRB3      29.95F
DANVILLE       MOSUNNY   82  66  58 W6        29.95S
SOUTH BOSTON*  FAIR      82  66  58 MISG      29.94F
MARTINSVILLE   MOSUNNY   82  65  56 W3        29.99R
ROANOKE        PTSUNNY   74  65  73 W7        29.97S
BLACKSBURG     CLOUDY    73  67  80 W6        30.04S
DUBLIN*        CLOUDY    73  66  79 SW10      30.03R
MARION*        CLOUDY    69  62  76 W16       30.06S
HILLSVILLE*    PTSUNNY   70  58  66 W7        30.03F
RICHLANDS*     FAIR      68  62  81 SW13      30.04F
WISE*          MOSUNNY   70  61  73 SW12      30.05S
ABINGDON*      CLOUDY    70  64  81 W8        30.04F
$$

MDZ021>025-VAZ099-100-301600-
SOUTHERN MARYLAND AND THE DELMARVA PENINSULA

CITY           SKY/WX    TMP DP  RH WIND       PRES   REMARKS
PATUXENT RIVER MOSUNNY   81  74  79 SE15G23   29.91F
BAY BRIDGE APT   N/A     79  70  73 S13G18    29.91F
LEONARDTOWN    MOSUNNY   81  70  69 SE7       29.93S
DOVER          MOSUNNY   83  68  61 S16       29.92F
GEORGETOWN     SUNNY     83  67  58 S16G24    29.95F
EASTON         PTSUNNY   84  72  65 S12G22    29.95F
CAMBRIDGE      MOSUNNY   81  68  65 SE15G25   29.92F
SALISBURY      SUNNY     82  64  54 S18G24    29.95F
OCEAN CITY     NOT AVBL
WALLOPS ISLAND MOSUNNY   80  74  81 S18       29.97F
ACCOMACK*      MOSUNNY   81  73  78 S14       29.95F
$$

NCZ012>017-030>032-301600-
NORTH CENTRAL AND EASTERN NORTH CAROLINA

CITY           SKY/WX    TMP DP  RH WIND       PRES   REMARKS
ROANOKE RAPIDS FAIR      82  68  61 SW10      29.95S
RALEIGH        MOSUNNY   84  67  56 SW8       29.96F
ELIZABETH CITY MOSUNNY   84  71  65 S8        29.97S
AHOSKIE*       SUNNY     84  68  59 S9        29.96S
EDENTON*         N/A     83  71  67 S7        29.97F
CURRITUCK*     MOSUNNY   85  65  51 S3        29.97F
KILL DEVIL HLS MOSUNNY   89  69  51 SW3       29.97F
MANTEO         MOSUNNY   84  69  60 S8        29.98F
CAPE HATTERAS  SUNNY     83  74  74 SW8       30.01R
TARBORO*         N/A     87  66  49 SW7       29.97S
GOLDSBORO      SUNNY     87  66  49 S8        29.95F
WASHINGTON     SUNNY     84  67  56 SW7       29.98F
GREENVILLE     SUNNY     86  68  54 SW7       29.99F
NEW BERN       MOSUNNY   85  67  54 SW8       30.01S
WILMINGTON     SUNNY     87  68  52 W7        30.00F
$$

VAZ048-301600-
ELSEWHERE

CITY           SKY/WX    TMP DP  RH WIND       PRES   REMARKS
HARRISBURG PA  CLOUDY    76  67  73 S9        29.89F
BALTIMORE      CLOUDY    76  72  87 SE5       29.89F
ANNAPOLIS      LGT RAIN  78  72  81 S13G21    29.90F
ANDREWS AFB    DRIZZLE   77  73  88 S9        29.90F
PHILADELPHIA   PTSUNNY   82  63  52 S16       29.93F
HENDERSON NC   SUNNY     81  64  54 SW6       29.96S
GREENSBORO     MOSUNNY   84  62  47 SW10      29.96R
ROCKY MOUNT    SUNNY     88  67  49 SW8       29.96F
$$

VAZ100-301600-
MARINE

STATION/POSITION TIME  TEMP    WIND        PRES    WAVE   SWELL
                       AIR SEA DIR/SP/G            HT/PER HT/PER
                 (UTC) (F)     (DEG/KT/KT) (MB)    (FT/S) (FT/S)
BRANDYWINE LGT   1400   71 72  170/ 19/ 21 1014.7F
CAPE MAY NJ      1400   74 76  140/ 15/ 19 1014.4F
LEWES DE         1400   78 72  150/ 11/ 16 1014.6F
15NM E FENWICK I 1450   74 72              1015.0F   3/ 8
OCEAN-CITY-INLET 1400   75 72  180/  8/ 13 1015.1F
WACHAPREAGUE VA  1400   77 78  180/  9/ 12 1015.1R
GOOSES REEF MD   1500   78 77  170/ 19/ 23 1013.7F
COVE POINT MD    1400   77     180/ 22/ 25 1013.9F
SOLOMONS ISLAND  1400      79                N/A
BISHOPS HEAD MD  1400   77     160/ 17/ 20 1013.7F
PINEY POINT MD   1400          190/ 14/ 16   N/A
CAMBRIDGE MD     1400   81 79  170/  8/ 15 1013.3F
LEWISETTA VA     1400   81 80  190/ 11/ 13 1013.0F
RAPPAHANNOCK LGT 1400          160/ 12/ 13 1015.0F
STINGRAY PT      1500   79 80  170/ 17/ 19 1013.3F   2/ 2
YORK RVR RNG VA  1400   80     160/ 10/ 11 1013.6F
YORKTOWN VA      1400   81 80  180/  9/ 11 1013.6F
JAMESTOWN VA     1500   82 83  160/  8/ 10   N/A
DOMINION TERM VA 1400   80     170/  5/  6 1014.1F
KIPTOPEKE VA     1400      82  170/ 12/ 13   N/A
CHES BAY BRIDGE  1400   80 72  150/  7/  8 1014.0F
CAPE HENRY VA    1400   81     140/ 10/ 12 1012.9F
CHESAPEAKE LGHT  1400   77     160/ 13/ 14 1015.4F
WILLOUBY STN VA  1400   81     170/  7/  9 1015.0F
CAPE HENRY BUOY  1428      76                N/A     3/ 8
1ST LANDING BUOY 1500      77              1013.8F   1/ 3
CAPE CHARLES BUO 1426      77                N/A     3/ 8   2/ 8
OFFSHORE WE BUOY 1411      77                N/A     3/ 7   3/ 7
64NM E OF VA BCH 1450   76 76  170/  8/ 10 1015.3R   4/ 8   3/ 8
DUCK PIER NC     1400   80 73  170/  6/  8 1014.4F
44100 DUCK FRF   1424      76                N/A     3/ 8
44056 DUCK FRF   1411      75                N/A     2/ 8
OREGON INLET NC  1400   80 78  200/  8/ 10 1015.6F
HATTERAS NC      1400   81 81  210/  7/ 10 1015.7R
DIAMOND SHLS NC  1450   80 82  220/ 10/ 12 1015.9S   3/ 8   3/ 8
CAPE LOOKOUT NC  1500   81     250/ 10/ 11 1015.9R
$$



USA.gov is the U.S. government's official web portal to all federal, state and local government web resources and services.